Date,TemperatureHighF,TemperatureAvgF,TemperatureLowF,DewpointHighF,DewpointAvgF,DewpointLowF,HumidityHigh,HumidityAvg,HumidityLow,PressureMaxIn,PressureMinIn,WindSpeedMaxMPH,WindSpeedAvgMPH,GustSpeedMaxMPH,PrecipitationSumIn
2013-2-1,41,37,34,-100,-100,-100,0,0,100,0.00,40.00,0,-999,0,0.00
2013-2-2,46,33,26,-100,-100,-100,0,0,100,0.00,40.00,0,-999,0,0.00
2013-2-3,44,34,25,-100,-100,-100,0,0,100,0.00,40.00,0,-999,0,0.00
2013-2-4,41,37,30,-100,-100,-100,0,0,100,0.00,40.00,0,-999,0,0.00
2013-2-5,49,37,30,-100,-100,-100,0,0,100,0.00,40.00,0,-999,0,0.00
2013-2-6,38,33,25,-100,-100,-100,0,0,100,0.00,40.00,0,-999,0,0.00
2013-2-7,41,31,25,-100,-100,-100,0,0,100,0.00,40.00,0,-999,0,0.00
2013-2-8,37,31,25,-100,-100,-100,0,0,100,0.00,40.00,0,-999,0,0.00
2013-2-9,33,30,28,-100,-100,-100,0,0,100,0.00,40.00,0,-999,0,0.00
2013-2-10,34,28,23,-100,-100,-100,0,0,100,0.00,40.00,0,-999,0,0.00
2013-2-11,35,28,19,-100,-100,-100,0,0,100,0.00,40.00,0,-999,0,0.00
2013-2-12,38,35,31,-100,-100,-100,0,0,100,0.00,40.00,0,-999,0,0.00
2013-2-13,41,37,34,-100,-100,-100,0,0,100,0.00,40.00,0,-999,0,0.00
2013-2-14,37,35,32,-100,-100,-100,0,0,100,0.00,40.00,0,-999,0,0.00
2013-2-15,47,38,30,-100,-100,-100,0,0,100,0.00,40.00,0,-999,0,0.00
2013-2-16,53,38,26,-100,-100,-100,0,0,100,0.00,40.00,0,-999,0,0.00
2013-2-17,35,31,27,-100,-100,-100,0,0,100,0.00,40.00,0,-999,0,0.00
2013-2-18,39,30,19,-100,-100,-100,0,0,100,0.00,40.00,0,-999,0,0.00
2013-2-19,41,32,27,-100,-100,-100,0,0,100,0.00,40.00,0,-999,0,0.00
2013-2-20,34,30,22,-100,-100,-100,0,0,100,0.00,40.00,0,-999,0,0.00
2013-2-21,32,26,12,-100,-100,-100,0,0,100,0.00,40.00,0,-999,0,0.00
2013-2-22,39,32,25,-100,-100,-100,0,0,100,0.00,40.00,0,-999,0,0.00
2013-2-23,34,29,22,-100,-100,-100,0,0,100,0.00,40.00,0,-999,0,0.00
2013-2-24,35,28,21,-100,-100,-100,0,0,100,0.00,40.00,0,-999,0,0.00
2013-2-25,35,28,20,-100,-100,-100,0,0,100,0.00,40.00,0,-999,0,0.00
2013-2-26,33,28,18,-100,-100,-100,0,0,100,0.00,40.00,0,-999,0,0.00
2013-2-27,43,28,12,-100,-100,-100,0,0,100,0.00,40.00,0,-999,0,0.00
2013-2-28,42,34,22,-100,-100,-100,0,0,100,0.00,40.00,0,-999,0,0.00